Regional Weather Roundup
Issued by NWS State College, PA

Home | Current Version | Previous Version | Text Only | Print | Product List | Glossary On
Versions: 1 2 3 4 5 6 7 8 9 10 11 12 13 14 15 16 17 18 19 20 21 22 23 24 25 26 27 28 29 30 31 32 33 34 35 36 37 38 39 40 41 42 43 44 45 46 47 48 49 50
000
ASUS41 KCTP 280710
RWRCTP

REGIONAL WEATHER ROUNDUP
NATIONAL WEATHER SERVICE STATE COLLEGE PA
300 AM EDT WED SEP 28 2016

Note: "fair" indicates few or no clouds below 12,000 feet with no
significant weather and/or obstructions to visibility.

* = STATION THAT DOES NOT REPORT PRECIPITATION /E.G. RAIN...SNOW...ETC/
    THUNDER OR FOG.

PAZ002>004-007>009-013>016-020>023-029>032-280800-
WESTERN PENNSYLVANIA

CITY           SKY/WX    TMP DP  RH WIND       PRES   REMARKS
ERIE           CLEAR     60  42  51 S12       29.88R
MEADVILLE      CLEAR     55  38  52 CALM      29.91R
FRANKLIN*        N/A     48  37  66 SE6       29.94S
NEW CASTLE     FAIR      54  42  64 CALM      29.92R
BEAVER COUNTY  NOT AVBL
BUTLER*        CLEAR     46  39  76 SE5       29.96R
PITTSBURGH INT CLEAR     51  43  74 CALM      29.92R
PITTSBURGH     CLEAR     51  47  86 SE8       29.93R
INDIANA*       CLEAR     48  45  87 CALM      29.98S
LATROBE        CLEAR     46  46 100 CALM      29.96S
WASHINGTON CO* CLEAR     41  37  87 CALM      29.94R
$$

PAZ004>006-010>012-017>019-024>028-033>037-041-042-045-046-049>053-280800-
CENTRAL PENNSYLVANIA

CITY           SKY/WX    TMP DP  RH WIND       PRES   REMARKS
BRADFORD       CLEAR     43  40  89 SE5       29.98R
DUBOIS         CLEAR     50  41  71 SE8       29.96R
CLEARFIELD     CLEAR     42  41  96 N3        29.98F
JOHNSTOWN      CLEAR     49  43  80 CALM      29.98S
ALTOONA        PTCLDY    47  44  90 CALM      29.99R
STATE COLLEGE  CLEAR     46  45  95 CALM      29.99S
WILLIAMSPORT   PTCLDY    49  48  97 CALM      29.99R
SELINSGROVE    CLEAR     47  47 100 NW3       30.00R
FT INDIANTOWN  CLEAR     48  48 100 N2        30.00R
CAPITAL CITY   CLEAR     54  51  90 CALM      29.99R
HARRISBURG     PTCLDY    55  53  93 NE3       29.99R
YORK           CLOUDY    52  52 100 CALM      29.99R
$$

PAZ038>040-043-044-047-048-054-055-060>062-067>071-280800-
EASTERN PENNSYLVANIA

CITY           SKY/WX    TMP DP  RH WIND       PRES   REMARKS
SCRANTON       CLEAR     51  46  83 E5        30.02R
MOUNT POCONO   CLEAR     42  41  96 NE3       30.04R
ALLENTOWN      CLEAR     49  45  86 CALM      30.02R
QUAKERTOWN*    SUNNY     46  46 100 CALM      30.02S
READING        CLEAR     52  49  89 N3        30.00R
LANCASTER      CLOUDY    58  58 100 CALM      30.00R
COATESVILLE    SUNNY     54  54 100 CALM      30.01S
POTTSTOWN      CLEAR     51  49  92 CALM      30.02S
BLUE BELL      CLEAR     48  48 100 CALM      30.00S
DOYLESTOWN     CLEAR     53  50  89 CALM      30.00R
WILLOW GROVE   NOT AVBL
NORTH PHILA    CLEAR     57  54  89 CALM      30.02R
PHILADELPHIA   PTCLDY    60  56  86 N3        30.00S
$$



USA.gov is the U.S. government's official web portal to all federal, state and local government web resources and services.